Weather History for KLKU - September, 2013

Change the Weather History Date:

Monday, September 30, 2013

  Actual Average (KCHO) Record (KCHO)
Temperature  
Mean Temperature 62 °F 61 °F  
Max Temperature 77 °F 73 °F 95 °F (1953)
Min Temperature 46 °F 50 °F 37 °F (2003)
Degree Days  
Heating Degree Days 4 5  
Month to date heating degree days 54  
Since 1 July heating degree days 58  
Cooling Degree Days 0 1  
Month to date cooling degree days 111  
Year to date cooling degree days 1021  
Growing Degree Days 12 (Base 50)    
Moisture  
Dew Point 54 °F    
Average Humidity 82    
Maximum Humidity 100    
Minimum Humidity 47    
Precipitation  
Precipitation 0.00 in 0.20 in 2.88 in (2010)
Month to date precipitation 4.48  
Year to date precipitation 32.62  
Sea Level Pressure  
Sea Level Pressure 30.05 in    
Wind  
Wind Speed 0 mph (South)    
Max Wind Speed 6 mph    
Max Gust Speed -    
Visibility 7 miles    
Events Fog    
T = Trace of Precipitation, MM = Missing Value Source: NWS Daily Summary

Daily Weather History Graph

Daily Weather History Graph

Search for Another Location

Airport or City:

Trip Planner

Search our weather history database for the weather conditions in past years. The results will help you decide how hot, cold, wet, or windy it might be!

Date:

Astronomy

Sep. 30, 2013 Rise Set
Actual Time 7:06 AM EDT 6:56 PM EDT
Civil Twilight 6:40 AM EDT 7:22 PM EDT
Nautical Twilight 6:10 AM EDT 7:52 PM EDT
Astronomical Twilight 5:39 AM EDT 8:23 PM EDT
Moon 2:45 AM EDT (9/30) 4:22 PM EDT (9/30)
Length of Visible Light 12h 41m
Length of Day
11h 49m
Waning Crescent, 19% of the Moon is Illuminated
Sep 30
Waning Crescent
Oct 4
New
Oct 11
First Quarter
Oct 18
Full
Oct 26
Last Quarter

Hourly Weather History & Observations

Time (EDT) Temp. Dew Point Humidity Pressure Visibility Wind Dir Wind Speed Gust Speed Precip Events Conditions
12:15 AM 51.8 °F 50.0 °F 94% 30.07 in 0.5 mi Calm Calm - N/A Fog Fog
12:35 AM 51.8 °F 51.8 °F 100% 30.07 in 1.0 mi Calm Calm - N/A   Mist
12:55 AM 51.8 °F 51.8 °F 100% 30.06 in 0.5 mi Calm Calm - N/A Fog Fog
1:15 AM 51.8 °F 51.8 °F 100% 30.07 in 1.0 mi Calm Calm - N/A   Mist
1:35 AM 51.8 °F 51.8 °F 100% 30.07 in 2.5 mi Calm Calm - N/A   Clear
1:55 AM 51.8 °F 50.0 °F 94% 30.07 in 1.0 mi Calm Calm - N/A   Mist
2:15 AM 51.8 °F 51.8 °F 100% 30.06 in 0.5 mi Calm Calm - N/A Fog Fog
2:35 AM 51.8 °F 50.0 °F 94% 30.06 in 0.5 mi Calm Calm - N/A Fog Fog
2:55 AM 51.8 °F 51.8 °F 100% 30.06 in 0.5 mi Calm Calm - N/A Fog Fog
3:15 AM 48.2 °F 48.2 °F 100% 30.06 in 1.2 mi Calm Calm - N/A   Mist
3:35 AM 48.2 °F 48.2 °F 100% 30.06 in 1.0 mi Calm Calm - N/A   Mist
3:55 AM 48.2 °F 48.2 °F 100% 30.06 in 1.0 mi Calm Calm - N/A   Mist
4:15 AM 48.2 °F 48.2 °F 100% 30.06 in 0.5 mi Calm Calm - N/A Fog Fog
4:35 AM 51.8 °F 50.0 °F 94% 30.07 in 2.0 mi Calm Calm - N/A   Mist
4:55 AM 48.2 °F 46.4 °F 93% 30.06 in 5.0 mi Calm Calm - N/A   Clear
5:15 AM 48.2 °F 48.2 °F 100% 30.06 in 1.2 mi Calm Calm - N/A   Mist
5:35 AM 48.2 °F 46.4 °F 93% 30.07 in 0.5 mi Calm Calm - N/A Fog Fog
5:55 AM 48.2 °F 48.2 °F 100% 30.07 in 0.5 mi Calm Calm - N/A Fog Fog
6:15 AM 51.8 °F 50.0 °F 94% 30.07 in 0.8 mi Calm Calm - N/A   Mist
6:35 AM 48.2 °F 46.4 °F 93% 30.07 in 2.0 mi Calm Calm - N/A   Clear
6:55 AM 48.2 °F 46.4 °F 93% 30.07 in 1.2 mi Calm Calm - N/A   Mist
7:15 AM 51.8 °F 50.0 °F 94% 30.08 in 5.0 mi Calm Calm - N/A   Clear
7:35 AM 46.4 °F 46.4 °F 100% 30.09 in 5.0 mi Calm Calm - N/A   Clear
7:55 AM 51.8 °F 50.0 °F 94% 30.09 in 5.0 mi Calm Calm - N/A   Clear
8:15 AM 55.4 °F 53.6 °F 94% 30.09 in 10.0 mi Calm Calm - N/A   Clear
8:35 AM 57.2 °F 57.2 °F 100% 30.10 in 10.0 mi Calm Calm - N/A   Clear
8:55 AM 59.0 °F 57.2 °F 94% 30.10 in 10.0 mi Calm Calm - N/A   Clear
9:15 AM 60.8 °F 59.0 °F 94% 30.10 in 10.0 mi Calm Calm - N/A   Clear
9:35 AM 64.4 °F 60.8 °F 88% 30.09 in 10.0 mi Calm Calm - N/A   Clear
9:55 AM 66.2 °F 57.2 °F 73% 30.09 in 10.0 mi SSE 3.5 mph - N/A   Clear
10:15 AM 66.2 °F 55.4 °F 68% 30.09 in 10.0 mi South 4.6 mph - N/A   Clear
10:35 AM 69.8 °F 55.4 °F 60% 30.09 in 10.0 mi Calm Calm - N/A   Clear
10:55 AM 69.8 °F 55.4 °F 60% 30.09 in 10.0 mi SE 5.8 mph - N/A   Clear
11:15 AM 69.8 °F 57.2 °F 64% 30.08 in 10.0 mi ESE 4.6 mph - N/A   Clear
11:35 AM 71.6 °F 57.2 °F 60% 30.08 in 10.0 mi Calm Calm - N/A   Clear
11:55 AM 71.6 °F 57.2 °F 60% 30.08 in 10.0 mi South 3.5 mph - N/A   Clear
12:15 PM 71.6 °F 57.2 °F 60% 30.07 in 10.0 mi Calm Calm - N/A   Scattered Clouds
12:35 PM 71.6 °F 57.2 °F 60% 30.07 in 10.0 mi Calm Calm - N/A   Mostly Cloudy
12:55 PM 71.6 °F 57.2 °F 60% 30.06 in 7.0 mi WNW 3.5 mph - N/A   Scattered Clouds
1:15 PM 75.2 °F 57.2 °F 53% 30.05 in 10.0 mi Calm Calm - N/A   Scattered Clouds
1:35 PM 71.6 °F 57.2 °F 60% 30.04 in 10.0 mi Calm Calm - N/A   Mostly Cloudy
1:55 PM 73.4 °F 57.2 °F 57% 30.04 in 10.0 mi Calm Calm - N/A   Mostly Cloudy
2:15 PM 73.4 °F 57.2 °F 57% 30.03 in 10.0 mi Calm Calm - N/A   Scattered Clouds
2:35 PM 73.4 °F 57.2 °F 57% 30.02 in 10.0 mi Calm Calm - N/A   Scattered Clouds
2:55 PM 73.4 °F 57.2 °F 57% 30.01 in 10.0 mi Calm Calm - N/A   Mostly Cloudy
3:15 PM 73.4 °F 55.4 °F 53% 30.01 in 10.0 mi Calm Calm - N/A   Mostly Cloudy
3:35 PM 75.2 °F 55.4 °F 50% 30.00 in 10.0 mi Calm Calm - N/A   Scattered Clouds
3:55 PM 77.0 °F 55.4 °F 47% 30.00 in 10.0 mi West 3.5 mph - N/A   Mostly Cloudy
4:15 PM 75.2 °F 55.4 °F 50% 29.99 in 10.0 mi Calm Calm - N/A   Scattered Clouds
4:35 PM 75.2 °F 55.4 °F 50% 29.99 in 10.0 mi Calm Calm - N/A   Clear
4:55 PM 75.2 °F 55.4 °F 50% 29.99 in 10.0 mi Calm Calm - N/A   Clear
5:15 PM 75.2 °F 59.0 °F 57% 30.00 in 10.0 mi SSE 3.5 mph - N/A   Clear
5:35 PM 75.2 °F 57.2 °F 53% 30.00 in 10.0 mi SE 3.5 mph - N/A   Clear
5:55 PM 73.4 °F 59.0 °F 61% 30.00 in 10.0 mi Calm Calm - N/A   Clear
6:15 PM 69.8 °F 60.8 °F 73% 30.00 in 10.0 mi Calm Calm - N/A   Clear
6:35 PM 66.2 °F 60.8 °F 83% 30.01 in 10.0 mi Calm Calm - N/A   Clear
6:55 PM 64.4 °F 60.8 °F 88% 30.01 in 10.0 mi Calm Calm - N/A   Clear
7:15 PM 60.8 °F 59.0 °F 94% 30.02 in 10.0 mi Calm Calm - N/A   Clear
7:35 PM 60.8 °F 57.2 °F 88% 30.02 in 10.0 mi Calm Calm - N/A   Clear
7:55 PM 59.0 °F 57.2 °F 94% 30.03 in 7.0 mi Calm Calm - N/A   Clear
8:15 PM 57.2 °F 55.4 °F 94% 30.04 in 7.0 mi Calm Calm - N/A   Clear
8:35 PM 57.2 °F 55.4 °F 94% 30.04 in 7.0 mi Calm Calm - N/A   Clear
8:55 PM 57.2 °F 55.4 °F 94% 30.05 in 7.0 mi Calm Calm - N/A   Clear
9:15 PM 57.2 °F 57.2 °F 100% 30.05 in 10.0 mi Calm Calm - N/A   Clear
9:35 PM 57.2 °F 55.4 °F 94% 30.05 in 10.0 mi South 3.5 mph - N/A   Clear
9:55 PM 57.2 °F 55.4 °F 94% 30.05 in 10.0 mi South 3.5 mph - N/A   Clear
10:15 PM 57.2 °F 55.4 °F 94% 30.05 in 7.0 mi Calm Calm - N/A   Clear
10:35 PM 57.2 °F 57.2 °F 100% 30.06 in 10.0 mi Calm Calm - N/A   Scattered Clouds
10:55 PM 57.2 °F 55.4 °F 94% 30.05 in 10.0 mi Calm Calm - N/A   Scattered Clouds
11:15 PM 57.2 °F 55.4 °F 94% 30.05 in 10.0 mi South 3.5 mph - N/A   Scattered Clouds
11:35 PM 55.4 °F 53.6 °F 94% 30.05 in 7.0 mi Calm Calm - N/A   Clear
11:55 PM 55.4 °F 55.4 °F 100% 30.05 in 10.0 mi Calm Calm - N/A   Clear